Probability
0 0 0 0 0 0 0 0 0 0 0 0 0 0 0 0 0 0 0 0 0 0 0 0 0 0 0 0 0 0 0 0 0 0 0 0 0 0 0 0 0 0 0
0 0 0 0 0 0 0 0 0 0 0 0 0 0 0 0 0 0 0 0 0 0 0 0 0 0 0 0 0 0 0 0 0 0 0 0 0 0 0 0 0 0 0
0 0 0 0 0 0 0 0 0 0 0 0 0 0 0 0 0 0 0 0 0 0 0 0 0 0 0 0 0 0 0 0 0 0 0 0 0 0 0 0 0 0 0
0 0 0 0 0 0 0 0 0 0 0 0 0 0 0 0 0 0 0 0 0 0 0 0 0 0 0 0 0 0 0 0 0 0 0 0 0 0 0 0 0 0 0
0 0 0 0 0 0 0 0 0 0 0 0 0 0 0 0 0 0 0 0 0 0 0 0 0 0 0 0 0 0 0 0 0 0 0 0 0 0 0 0 0 0 0
0 0 0 0 0 0 0 0 0 0 0 0 0 0 0 0 0 0 0 0 0 0 0 0 0 0 0 0 0 0 0 0 0 0 0 0 0 0 0 0 0 0 0
0 0 0 0 0 0 0 0 0 0 0 0 0 0 0 0 0 0 0 0 0 0 0 0 0 0 0 0 0 0 0 0 0 0 0 0 0 0 0 0 0 0 0
0 0 0 0 0 0 0 0 0 0 0 0 0 0 0 0 0 0 0 0 0 0 0 0 0 0 0 0 0 0 0 0 0 0 0 0 0 0 0 0 0 0 0
0 0 0 0 0 0 0 0 0 0 0 0 0 0 0 0 0 0 0 0 0 0 0 0 0 0 0 0 0 0 0 0 0 0 0 0 0 0 0 0 0 0 0
0 0 0 0 0 0 0 0 0 0 0 0 0 0 0 0 0 0 0 0 0 0 0 0 0 0 0 0 0 0 0 0 0 0 0 0 0 0 0 0 0 0 0
0 0 0 0 0 0 0 0 0 0 0 0 0 0 0 0 0 0 0 0 0 0 0 0 0 0 0 0 0 0 0 0 0 0 0 0 0 0 0 0 0 0 0
0 0 0 0 0 0 0 0 0 0 0 0 0 0 0 0 0 0 0 0 0 0 0 0 0 0 0 0 0 0 0 0 0 0 0 0 0 0 0 0 0 0 0
0 0 0 0 0 0 0 0 0 0 0 0 0 0 0 0 0 0 0 0 0 0 0 0 0 0 0 0 0 0 0 0 0 0 0 0 0 0 0 0 0 0 0
0 0 0 0 0 0 0 0 0 0 0 0 0 0 0 0 0 0 0 0 0 0 0 0 0 0 0 0 0 0 0 0 0 0 0 0 0 0 0 0 0 0 0
0 0 0 0 0 0 0 0 0 0 0 0 0 0 0 0 0 0 0 0 0 0 0 0 0 0 0 0 0 0 0 0 0 0 0 0 0 0 0 0 0 0 0
0 0 0 0 0 0 0 0 0 0 0 0 0 0 0 0 0 0 0 0 0 0 0 0 0 0 0 0 0 0 0 0 0 0 0 0 0 0 0 0 0 0 0
0 0 0 0 0 0 0 0 0 0 0 0 0 0 0 0 0 0 0 0 0 0 0 0 0 0 0 0 0 0 0 0 0 0 0 0 0 0 0 0 0 0 0
0 0 0 0 0 0 0 0 0 0 0 0 0 0 0 0 0 0 0 0 0 0 0 0 0 0 0 0 0 0 0 0 0 0 0 0 0 0 0 0 0 0 0
0 0 0 0 0 0 0 0 0 0 0 0 0 0 0 0 0 0 0 0 0 0 0 0 0 0 0 0 0 0 0 0 0 0 0 0 0 0 0 0 0 0 0
0 0 0 0 0 0 0 0 0 0 0 0 0 0 0 0 0 0 0 0 0 0 0 0 0 0 0 0 0 0 0 0 0 0 0 0 0 0 0 0 0 0 0
0 0 0 0 0 0 0 0 0 0 0 0 0 0 0 0 0 0 0 0 0 0 0 0 0 0 0 0 0 0 0 0 0 0 0 0 0 0 0 0 0 0 0
0 0 0 0 0 0 0 0 0 0 0 0 0 0 0 0 0 0 0 0 0 0 0 0 0 0 0 0 0 0 0 0 0 0 0 0 0 0 0 0 0 0 0
0 0 0 0 0 0 0 0 0 0 0 0 0 0 0 0 0 0 0 0 0 0 0 0 0 0 0 0 0 0 0 0 0 0 0 0 0 0 0 0 0 0 0
0 0 0 0 0 0 0 0 0 0 0 0 0 0 0 0 0 0 0 0 0 0 0 0 0 0 0 0 0 0 0 0 0 0 0 0 0 0 0 0 0 0 0
0 0 0 0 0 0 0 0 0 0 0 0 0 0 0 0 0 0 0 0 0 0 0 0 0 0 0 0 0 0 0 0 0 0 0 0 0 0 0 0 0 0 0
0 0 0 0 0 0 0 0 0 0 0 0 0 0 0 0 0 0 0 0 0 0 0 0 0 0 0 0 0 0 0 0 0 0 0 0 0 0 0 0 0 0 0
Wind_Speed
1 1 1 1 1 1 1 1 1 1 2 2 3 3 3 4 4 3 3 3 3 3 4 4 5 4 3 3 3 3 4 4 7 8 6 5 6 7 8 7 7 7 8
1 1 1 1 1 1 1 1 1 2 2 2 2 3 3 4 4 3 3 4 3 4 4 4 5 5 5 4 4 5 5 5 6 10 8 6 7 7 8 8 8 7 7
1 1 1 1 1 1 2 2 2 2 2 2 2 2 3 3 3 3 3 3 3 4 4 4 5 6 6 5 5 5 5 5 5 7 9 7 6 6 8 8 8 7 8
1 1 1 2 1 2 2 2 2 2 2 2 2 3 3 3 3 3 3 3 3 4 4 5 5 5 6 6 5 6 6 6 6 6 7 7 6 7 6 7 8 7 7
1 1 1 1 1 2 2 2 2 2 2 2 2 3 3 3 2 3 4 3 3 4 4 4 5 6 7 7 6 6 6 5 5 6 7 7 7 7 7 7 8 8 7
0 1 1 1 1 1 1 2 2 2 2 2 2 2 3 3 5 6 5 4 4 4 5 5 5 5 7 9 10 9 8 7 7 6 6 7 9 8 7 7 8 9 8
0 1 1 1 1 1 1 1 2 2 2 2 2 2 3 4 6 7 6 4 4 4 5 5 5 5 5 5 7 9 8 9 9 7 7 8 9 8 8 9 8 9 9
1 1 1 1 1 1 1 1 2 2 2 2 3 3 3 4 6 6 6 4 4 4 5 5 5 6 5 7 6 6 6 6 7 6 5 7 7 7 7 7 9 9 9
1 2 2 2 2 1 1 2 2 2 2 2 3 3 3 4 6 6 6 3 4 5 5 5 5 5 8 10 7 7 7 6 8 9 10 9 11 12 9 6 6 6 7
3 3 2 2 2 2 2 2 2 2 3 3 3 3 4 4 6 6 7 3 4 4 4 4 5 6 9 10 6 6 7 7 7 7 8 9 8 8 10 6 5 5 6
2 2 2 2 2 2 2 2 2 2 2 3 4 4 4 4 6 7 7 3 4 4 4 4 4 8 10 10 8 5 7 8 5 5 6 6 6 5 5 5 5 5 6
2 2 2 2 2 2 2 2 2 2 2 3 4 4 3 4 5 6 8 7 6 4 4 4 4 8 10 9 7 8 10 8 4 4 5 5 6 6 6 6 6 6 6
2 3 3 2 2 2 2 2 2 2 2 3 3 4 4 3 5 7 8 8 8 5 4 6 7 8 8 7 8 9 7 4 4 4 5 6 6 6 7 6 6 6 7
3 3 3 2 3 2 2 2 2 3 3 3 3 4 4 4 4 3 3 4 5 5 4 5 6 7 6 6 6 5 4 4 4 4 5 5 5 6 5 5 5 6 6
4 4 3 3 3 3 3 3 4 4 5 4 4 4 4 5 6 6 4 3 3 3 3 2 3 3 3 3 3 3 3 3 4 4 4 5 5 5 6 5 4 4 4
4 4 3 3 3 3 3 4 6 6 8 9 8 7 6 8 9 8 8 7 7 5 2 2 3 3 3 4 4 4 4 4 4 4 4 5 5 6 6 5 4 4 5
6 5 4 3 3 3 3 4 4 6 8 9 10 10 9 9 9 8 8 7 6 4 1 2 3 3 4 4 4 4 4 4 4 4 5 5 5 5 5 5 5 5 5
6 5 5 4 4 4 4 4 4 4 5 5 7 10 10 9 9 8 7 4 3 2 2 3 4 4 4 4 4 4 4 4 4 4 4 5 4 4 5 5 5 5 6
5 4 4 4 4 4 4 4 4 5 5 5 4 5 7 8 8 7 5 2 3 4 4 4 4 4 4 4 4 4 4 4 4 4 4 5 4 4 4 5 5 6 6
5 6 5 4 4 4 4 4 4 5 5 5 5 5 3 2 3 4 4 3 4 4 4 4 4 4 4 4 4 3 4 4 4 4 4 4 4 4 4 5 5 5 5
4 5 6 5 5 5 5 5 5 5 5 6 6 6 7 4 5 5 4 4 5 5 5 4 4 4 4 3 3 4 5 4 4 4 4 4 4 4 4 4 5 5 5
4 4 4 5 5 5 5 5 5 5 6 6 5 5 9 5 4 5 5 5 5 4 4 4 4 4 4 4 4 4 4 5 5 4 4 4 4 4 4 4 4 5 5
4 5 4 4 5 5 5 5 5 6 6 6 5 5 5 5 5 5 6 5 4 4 4 4 4 4 4 4 4 5 5 5 5 5 5 4 4 4 4 4 5 5 5
5 5 5 5 5 5 6 6 6 6 6 6 6 6 6 6 6 6 6 5 4 4 4 4 5 6 7 5 4 5 5 6 5 5 6 5 5 4 4 4 5 5 5
5 5 6 6 6 6 6 6 6 6 6 6 6 6 6 5 6 6 5 4 5 5 5 5 4 5 7 8 7 6 8 9 7 5 4 4 5 5 5 5 5 5 5
5 6 6 5 6 6 6 6 6 6 6 6 6 6 6 6 6 5 5 4 4 5 5 5 6 7 7 7 8 9 9 9 8 7 5 4 5 5 5 5 6 5 6
Wind_Direction
332 324 340 339 344 346 330 324 325 336 345 348 351 352 352 348 344 338 334 326 323 326 326 322 316 311 306 302 298 291 284 280 282 292 293 298 301 302 304 299 297 297 301
318 329 329 342 347 345 338 333 341 343 348 346 351 352 345 344 342 339 339 333 331 332 329 329 325 321 315 309 302 295 289 283 282 292 299 302 302 301 301 301 306 305 300
358 353 342 341 337 326 325 341 357 356 355 350 349 348 342 339 334 329 328 330 329 323 322 322 318 314 309 306 302 298 295 296 290 290 297 303 302 306 308 305 304 300 303
0 352 330 320 324 332 343 355 0 360 357 349 346 343 338 331 328 326 328 327 319 318 317 311 310 307 303 304 303 301 301 301 300 296 298 303 305 307 309 311 311 308 307
345 354 331 343 3 8 4 0 0 357 350 345 342 339 336 329 326 325 319 315 317 319 315 310 309 306 308 309 306 303 302 299 299 298 299 304 307 313 314 312 307 309 304
267 313 333 0 1 353 350 354 352 352 346 348 336 325 326 322 322 321 320 317 314 313 313 314 309 303 309 313 312 314 314 306 303 300 300 301 304 308 308 306 307 308 304
274 312 322 325 323 323 338 346 333 332 336 335 323 319 319 316 319 320 325 323 315 310 308 308 307 309 305 306 315 319 318 317 309 297 297 298 301 305 307 307 306 302 297
256 284 296 293 287 304 318 309 314 315 307 307 310 315 317 314 316 320 328 325 310 304 301 299 300 306 312 312 311 314 311 313 312 308 295 297 301 305 306 303 299 298 292
243 258 269 263 264 279 283 292 298 302 304 307 312 308 302 303 311 320 326 314 305 304 301 301 301 302 310 313 315 313 313 316 324 323 320 318 319 320 318 314 310 306 299
245 252 259 252 245 251 265 279 294 292 289 296 298 295 289 292 305 315 322 310 306 309 308 305 308 312 313 315 315 313 310 314 323 328 327 324 322 320 323 317 306 302 299
247 254 262 254 250 251 266 284 293 287 295 290 288 292 289 287 296 308 315 312 303 307 307 310 315 323 323 322 324 321 314 322 328 326 320 317 317 317 317 315 309 299 292
239 247 253 257 258 260 261 272 282 275 281 287 290 294 296 297 297 302 309 310 312 302 302 309 316 323 325 329 333 334 335 338 331 327 321 320 320 319 317 313 307 297 286
231 241 247 252 257 255 248 253 267 270 268 276 280 285 292 299 296 300 302 306 310 308 303 311 320 325 329 334 338 338 342 338 327 324 318 314 313 311 310 308 306 304 302
225 238 237 237 250 254 250 243 242 247 258 264 269 276 285 288 287 292 291 295 297 300 307 314 316 321 326 330 333 336 335 325 318 312 309 307 308 311 310 310 309 316 314
226 232 236 236 238 244 246 241 243 243 245 252 252 254 262 271 276 287 290 284 285 288 313 325 329 327 326 326 327 325 323 322 319 316 312 311 311 312 311 313 309 312 308
222 229 230 232 236 241 252 271 264 263 272 271 271 274 275 281 295 292 291 299 303 305 321 314 308 309 307 310 314 318 318 317 315 314 310 308 310 310 310 313 314 311 310
219 224 226 226 228 234 239 249 272 281 270 270 273 276 278 287 287 289 293 299 301 305 297 289 289 291 296 300 301 302 302 307 310 309 307 306 307 310 310 311 313 312 310
221 222 220 224 226 229 233 240 246 258 275 277 275 276 281 286 286 290 296 299 286 287 266 267 273 279 283 286 289 294 297 304 307 303 303 304 305 305 307 308 308 306 306
220 223 221 225 226 229 233 237 242 247 257 271 285 284 282 284 284 284 286 252 258 263 263 264 266 269 273 275 279 285 288 291 296 297 296 298 298 298 300 301 302 303 300
223 225 219 220 223 227 229 233 238 244 250 255 258 264 271 262 258 263 250 247 251 257 257 259 262 262 264 267 273 278 283 286 290 288 290 293 293 291 294 297 299 300 298
222 224 218 221 225 226 228 231 235 237 243 249 254 254 254 244 245 248 247 246 246 251 254 255 257 258 259 263 267 270 273 280 283 284 288 291 292 291 290 291 293 292 293
215 220 219 224 228 231 233 234 235 238 242 248 260 263 261 257 249 251 251 251 250 250 247 247 253 251 247 250 254 260 266 274 279 281 285 288 286 286 289 291 293 295 295
213 219 227 230 230 233 236 235 234 237 241 243 246 249 248 247 248 250 252 253 252 252 249 244 251 257 254 252 249 246 253 262 264 264 271 280 282 280 280 282 287 293 296
215 220 225 230 230 231 234 237 238 240 241 242 241 242 244 245 247 251 253 253 252 251 247 245 247 252 256 259 257 254 256 263 262 258 256 263 271 274 275 278 282 284 287
218 223 227 229 231 234 237 240 240 240 241 241 242 244 246 247 249 251 251 250 250 252 252 251 250 251 255 259 262 263 266 272 271 264 256 256 261 263 268 272 278 285 284
225 227 231 232 233 234 236 240 242 243 244 244 243 244 244 245 249 250 249 246 249 253 254 253 250 253 259 261 261 266 269 270 270 263 252 250 254 262 266 272 278 281 284